Время (UTC), дата Ветер
(°,м/с) 
Видим.   Явления Облачность Т
(°С)
Тd
(°С)
f(%) Тe
(°С)
Pmin
(гПа)
dP
(гПа)
Po
(мм)
O2
(г/м3)
Тmin Tmax R s Состояние
почвы
00 01.07.11 220 (ЮЗ) 10 км    ясно 
+16.1 +14.2 89 +24  1011.2  -0.3  756  285           
03 01.07.11 210 (ЮЗ) 10 км    3/0 средняя, верхняя 
[Ac trans|Ci fib]
+16.1 +14.5 90 +25  1011.1  -0.3  756  285           
06 01.07.11 230 (ЮЗ) 10 км    9/3 1000 м средняя, верхняя 
[Sc|Ac trans|Ci]
+21.2 +15.8 71 +31  1011  756  279  +14.7    0.3     
09 01.07.11 250 (З) 10 км    9/5 1000 м средняя, верхняя 
[Cu med, cong|Ac trans|Cc]
+24.8 +12.7 47 +30  1011.5  0.5  756  277           
12 01.07.11 150 (ЮВ) 10 км    8/8 1000 м 
[Cu med, cong]
+25.4 +13.1 46 +31  1011.1  -0.4  756  276           
15 01.07.11 020 (С) 10 км    4/4 1000 м 
[Sc diur, vesp]
+24.9 +13.8 50 +31  1010.6  -0.4  755  276    +27       
18 01.07.11 070 (В) 10 км    1/1 1500 м 
[Sc]
+20.9 +16.1 74 +31  1010.6  -0.1  755  279    +27       
21 01.07.11 тихо ()   10 км    1/0 средняя 
[Ac trans]
+18.3 +16.1 87 +29  1010.6  755  282           
00 02.07.11 тихо ()   10 км    ясно 
+16.8 +15.1 90 +25  1010.1  -0.5  755  283           
03 02.07.11 060 (СВ) 10 км    3/0 средняя 
[Ac trans]
+16.9 +14.6 86 +26  1009.7  -0.3  755  283           
06 02.07.11 080 (В) 10 км    3/0 средняя 
[Ac trans]
+23.6 +15.2 59 +32  1009.1  -0.6  754  277  +15.7         
09 02.07.11 080 (В) 10 км    4/1 1000 м верхняя 
[Cu hum|Ci]
+27.9 +15.1 46 +37  1008.6  -0.6  754  273           
12 02.07.11 080 (В) 10 км    8/3 1000 м верхняя 
[Cu med, cong|Ci]
+28.4 +15.3 45 +37  1008.2  -0.6  754  272           
15 02.07.11 070 (В) 10 км    10/5 1000 м верхняя 
[Cu med, cong|Ci]
+28 +16.1 48 +38  1008.1  -0.1  754  272    +29.3       
18 02.07.11 тихо ()   10 км    10/3 1000 м средняя, верхняя 
[Sc|Ac trans|Ci]
+24.3 +17.5 66 +37  1008.9  0.8  754  275    +29.3       
21 02.07.11 220 (ЮЗ) 10 км    ясно 
+22 +17.4 75 +35  1009.4  0.4  754  277           
00 03.07.11 220 (ЮЗ) 10 км    9/0 средняя 
[Ac As]
+20.5 +18 86 +35  1009.7  0.3  755  279           
03 03.07.11 230 (ЮЗ) 10 км    3/0 средняя 
[Ac trans]
+20.5 +17.2 81 +33  1010.5  0.8  755  279           
06 03.07.11 250 (З) 10 км    ясно 
+25.2 +16.3 58 +36  1010.8  0.8  756  275  +20.1         
09 03.07.11 260 (З) 10 км    5/5 1000 м 
[Cu med, cong]
+28.2 +16.7 50 +40  1010.6  -0.2  755  272           
12 03.07.11 260 (З) 10 км    8/8 1000 м верхняя 
[Cu med, cong|Ci ing]
+29.4 +16.1 45 +40  1010.1  -0.4  755  271           
15 03.07.11 290 (З) 10 км    5/5 1000 м кучево-дожд. 
[Cb cap]
+28.4 +15.8 46 +38  1009.5  -0.4  755  272    +29.7       
18 03.07.11 340 (С) 10 км    ясно 
+23.9 +17 65 +36  1010.3  0.7  755  276    +29.7       
21 03.07.11 310 (СЗ) 10 км    ясно 
+21 +16.5 75 +32  1010.2  0.1  755  279           
00 04.07.11 тихо ()   10 км    ясно 
+19 +16.1 83 +29  1009.3  -0.9  754  281           
03 04.07.11 тихо ()   10 км    ясно 
+19.2 +16.4 84 +30  1009.2  0.1  754  280           
06 04.07.11 070 (В) 10 км    4/0 средняя 
[Ac trans]
+24.3 +17.3 65 +37  1009  -0.2  754  275  +18         
09 04.07.11 140 (ЮВ) 10 км    3/3 1000 м 
[Cu med, cong]
+28 +17.6 53 +41  1008.6  -0.2  754  272           
12 04.07.11 310 (СЗ) 10 км    8/8 1000 м верхняя 
[Cu med, cong|Ci fib]
+30.6 +16.3 42 +41  1007.7  -0.2  753  270           
15 04.07.11 060 (СВ) 10 км    3/3 1000 м 
[Cu med, cong]
+30.5 +13.9 36 +37  1007.5  -0.2  753  270    +31       
18 04.07.11 340 (С) 10 км    ясно 
+24.4 +15 56 +33  1009.6  755  276    +31       
21 04.07.11 280 (З) 10 км    ясно 
+20.9 +15.4 71 +30  1009.3  -0.3  754  279           
00 05.07.11 230 (ЮЗ) 10 км    8/8 1000 м 
[Sc]
+19.9 +16 78 +31  1010.3  755  280           
03 05.07.11 230 (ЮЗ) 10 км    10/8 1000 м средняя, верхняя 
[Sc|Ac trans|Ci fib]
+19.8 +15.4 76 +30  1010.9  0.6  756  281           
06 05.07.11 240 (ЮЗ) 10 км    6/4 1000 м верхняя 
[Cu hum|Ci fib]
+23 +17.2 70 +35  1011  756  277  +19.4         
09 05.07.11 210 (ЮЗ) 10 км    10/5 1000 м средняя, верхняя 
[Cu med, cong|Ac trans|Ci]
+25.2 +16.8 60 +37  1010.9  756  275           
12 05.07.11 330 (СЗ) 10 км    8/8 1000 м кучево-дожд. 
[Cb cap]
+25.3 +17.3 61 +38  1010.9  756  275           
15 05.07.11 110 (В) 10 км  {гроза, ливн. осадки}  8/6 1000 м кучево-дожд., средняя 
[Cb cap|Ac trans]
+25.6 +16.9 59 +37  1011.2  0.3  756  275    +26.4       
18 05.07.11 170 (Ю) 10 км  {гроза, ливн. осадки}  8/8 1000 м кучево-дожд. 
[Cb cap]
+23.4 +18 72 +37  1012  0.7  756  277    +26.4  0.8     
21 05.07.11 160 (Ю) 10 км    ясно 
+20.3 +16.6 79 +32  1012.2  0.2  757  280           
00 06.07.11 тихо ()   10 км    3/0 средняя 
[Ac trans]
+17.8 +16.2 90 +28  1012.2  757  283           
03 06.07.11 тихо ()   10 км    1/0 средняя 
[Ac trans]
+18.2 +15 82 +27  1012.7  0.5  757  283           
06 06.07.11 080 (В) 10 км    ясно 
+23.8 +17.9 70 +38  1012.1  -0.6  756  276  +17.2         
09 06.07.11 080 (В) 10 км    4/4 1000 м 
[Cu hum]
+27.9 +17.5 53 +41  1010.6  -1.4  755  272           
12 06.07.11 080 (В) 10 км    6/6 1000 м 
[Cu med, cong]
+30.1 +17.2 46 +43  1009  -1.4  754  270           
15 06.07.11 050 (СВ) 10 км    9/9 1000 м 
[Sc]
+29.6 +18.1 50 +44  1008  -0.9  753  270    +30.5       
18 06.07.11 340 (С) 10 км    4/4 1000 м 
[Sc]
+26.4 +19.2 65 +43  1007.8  -0.2  753  272    +30.5       
21 06.07.11 340 (С) 10 км    ясно 
+24.4 +19.1 72 +41  1007.2  -0.7  753  274           
00 07.07.11 270 (З) 10 км    ясно 
+22.4 +19.7 85 +40  1007.4  0.2  753  276           
03 07.07.11 250 (З) 10 км    10/8 300 м верхняя 
[St|Ci]
+21.9 +20.3 91 +41  1008.5  1.1  754  276           
06 07.07.11 250 (З) 10 км    5/0 средняя, верхняя 
[Ac cast|Cc]
+26.3 +20.7 71 +46  1009.7  1.2  755  272  +21.5         
09 07.07.11 350 (С) 10 км    8/3 1000 м средняя, верхняя 
[Cu med, cong|Ac cast|Ci fib]
+30.8 +16.2 41 +41  1010  0.4  755  270           
12 07.07.11 320 (СЗ) 10 км    3/1 1000 м верхняя 
[Cu hum|Ci fib]
+32.1 +14.5 34 +40  1010.4  0.4  755  269           
15 07.07.11 330 (СЗ) 10 км    8/1 1000 м средняя, верхняя 
[Sc diur, vesp|Ac cast|Cc]
+31.1 +14.6 37 +39  1011  0.5  756  270    +32.4       
18 07.07.11 310 (СЗ) 10 км    8/3 1000 м средняя, верхняя 
[Sc|Ac trans|Ci]
+26.2 +15.5 52 +35  1012.5  1.5  757  275    +32.4       
21 07.07.11 300 (СЗ) 10 км    ясно 
+23 +16.3 66 +34  1012.7  0.2  757  278           
00 08.07.11 210 (ЮЗ) 10 км    ясно 
+21 +17.5 80 +34  1013.4  0.7  757  279           
03 08.07.11 270 (З) 10 км    8/8 1000 м 
[Sc]
+21.3 +17.7 80 +35  1014.7  1.3  758  279           
06 08.07.11 100 (В) 10 км    1/0 средняя 
[Ac trans]
+26.7 +17.3 56 +39  1015.5  0.8  759  275  +20.1         
09 08.07.11 170 (Ю) 10 км    ясно 
+29.4 +15.2 42 +38  1015.6  0.2  759  273           
12 08.07.11 240 (ЮЗ) 10 км    6/6 1000 м 
[Cu hum]
+31.8 +15.1 36 +40  1015.4  -0.2  759  271           
15 08.07.11 340 (С) 10 км    6/6 1000 м 
[Cu hum]
+31.4 +15.7 39 +41  1015.3  0.1  759  271    +32.1       
18 08.07.11 340 (С) 10 км    8/8 1000 м 
[Sc]
+26.9 +17.2 55 +39  1016.9  1.5  760  275    +32.1       
21 08.07.11 300 (СЗ) 10 км    8/8 1000 м 
[Sc]
+24.5 +17.5 65 +37  1017.3  0.3  760  277           
00 09.07.11 290 (З) 10 км    4/0 верхняя 
[Ci fib]
+22.4 +18.8 80 +38  1017.8  0.5  761  279           
03 09.07.11 300 (СЗ) 10 км    9/8 1000 м средняя 
[Cu Sc|Ac trans]
+22.2 +17.6 75 +35  1019  1.2  762  280           
06 09.07.11 240 (ЮЗ) 10 км    3/0 средняя 
[Ac trans]
+27.5 +17.7 55 +41  1018.9  762  275  +21.8         
09 09.07.11 290 (З) 10 км    3/3 1500 м 
[Cu hum]
+30.6 +14.2 37 +38  1018  -0.9  761  273           
12 09.07.11 350 (С) 10 км    8/8 1000 м 
[Cu med, cong]
+32.7 +14.6 34 +40  1017  -1  760  271           
15 09.07.11 330 (СЗ) 10 км    1/1 1500 м 
[Sc diur, vesp]
+31.2 +14.1 35 +38  1016.5  -0.5  760  272    +33       
18 09.07.11 320 (СЗ) 10 км    ясно 
+26.3 +16 53 +36  1017.1  0.6  760  276    +33       
21 09.07.11 тихо ()   10 км    ясно 
+23.3 +17.2 69 +36  1016.6  -0.6  760  278           
00 10.07.11 210 (ЮЗ) 10 км    ясно 
+20.9 +18 83 +35  1015.8  -0.8  759  280           
03 10.07.11 220 (ЮЗ) 10 км    ясно 
+20.7 +16.3 76 +31  1015.3  -0.5  759  281           
06 10.07.11 250 (З) 10 км    ясно 
+26.6 +18.8 62 +42  1014.6  -0.7  758  274  +20.3         
09 10.07.11 280 (З) 10 км    4/3 1500 м средняя 
[Cu med, cong|Ac trans]
+30.9 +19.3 50 +48  1013.1  -1.4  757  270           
12 10.07.11 320 (СЗ) 10 км    8/8 1000 м 
[Cu med, cong]
+32.1 +15.9 38 +42  1011.9  -1.3  756  269           
15 10.07.11 330 (СЗ) 10 км    4/4 1000 м 
[Cu hum]
+30.4 +15.3 40 +39  1011.9  756  271    +32.3       
18 10.07.11 310 (СЗ) 10 км    ясно 
+26.3 +17.7 59 +40  1012.2  0.3  757  274    +32.3       
21 10.07.11 300 (СЗ) 10 км    ясно 
+24.4 +19.7 75 +42  1012.4  0.1  757  275           
00 11.07.11 240 (ЮЗ) 10 км    ясно 
+22 +19 83 +38  1011.6  -0.8  756  277           
03 11.07.11 270 (З) 10 км    ясно 
+22.1 +18.4 80 +37  1011.4  -0.2  756  278           
06 11.07.11 340 (С) 10 км    ясно 
+28 +19.6 60 +45  1011.3  756  272  +21.5         
09 11.07.11 300 (СЗ) 10 км    5/5 1000 м кучево-дожд. 
[Cb cap]
+29.9 +17 46 +42  1010.8  -0.5  756  271           
12 11.07.11 350 (С) 10 км    3/3 1000 м 
[Cu med, cong]
+32.7 +15.1 35 +41  1010.1  -0.7  755  269           
15 11.07.11 310 (СЗ) 10 км    3/3 1000 м 
[Cu med, cong]
+30.5 +16.9 44 +42  1010  0.1  755  270    +32.7       
18 11.07.11 320 (СЗ) 10 км    ясно 
+26.8 +18.3 60 +41  1010.9  0.9  756  273    +32.7       
21 11.07.11 340 (С) 10 км    6/6 1000 м кучево-дожд. 
[Cb cap]
+24.6 +19.4 73 +42  1011  0.1  756  275           
00 12.07.11 тихо ()   10 км    3/0 средняя 
[Ac trans]
+22.4 +19.7 85 +40  1010.8  -0.3  755  277           
03 12.07.11 340 (С) 10 км    4/0 верхняя 
[Ci fib]
+21.9 +19.3 85 +39  1011.5  0.7  756  277           
06 12.07.11 070 (В) 10 км    ясно 
+27.2 +19 61 +43  1011.4  756  273  +21.5         
09 12.07.11 060 (СВ) 10 км    8/8 1000 м 
[Cu med, cong]
+31 +17.2 44 +43  1011  -0.4  756  270           
12 12.07.11 060 (СВ) 10 км    8/6 1000 м кучево-дожд., верхняя 
[Cb cap|Ci ing]
+32.6 +16.8 39 +44  1009.9  -1.1  755  268           
15 12.07.11 060 (СВ) 10 км    3/3 1000 м 
[Cu med, cong]
+31.7 +16.4 40 +43  1009.2  -0.7  754  269    +33.2       
18 12.07.11 040 (СВ) 10 км    1/0 верхняя 
[Ci ing]
+27 +16.4 52 +38  1010  0.7  755  273    +33.2       
21 12.07.11 040 (СВ) 10 км    ясно 
+24.3 +15 56 +33  1010.3  0.3  755  276           
00 13.07.11 040 (СВ) 10 км    ясно 
+21.9 +15.3 66 +31  1010.2  -0.2  755  278           
03 13.07.11 070 (В) 10 км    1/0 верхняя 
[Ci fib]
+22.7 +18 75 +37  1011.1  756  277           
06 13.07.11 080 (В) 10 км    3/0 средняя 
[Ac trans]
+27.1 +19.3 62 +44  1011.5  0.4  756  273  +20.6         
09 13.07.11 080 (В) 10 км    3/1 1000 м средняя 
[Cu hum|Ac trans]
+30.4 +16.6 43 +42  1011.5  756  271           
12 13.07.11 070 (В) 10 км    6/0 средняя, верхняя 
[Ac cast|Ci fib]
+32.2 +11.3 28 +35  1011.5  756  271           
15 13.07.11 080 (В) 10 км    9/0 средняя, верхняя 
[Ac cast|Ci fib]
+29.3 +15.5 43 +39  1011.5  756  272    +32.5       
18 13.07.11 тихо ()   10 км    8/0 средняя, верхняя 
[Ac trans|Ci fib]
+25.1 +17 61 +37  1012.5  0.9  757  276    +32.5       
21 13.07.11 040 (СВ) 10 км    3/0 средняя 
[Ac trans]
+23.5 +16.2 64 +34  1012.1  -0.4  756  277           
00 14.07.11 050 (СВ) 10 км    3/3 1000 м кучево-дожд. 
[Cb cap]
+23 +16 65 +33  1012.3  0.2  757  278           
03 14.07.11 060 (СВ) 10 км    8/8 1000 м 
[Sc]
+23.2 +18.1 73 +37  1012.3  757  277           
06 14.07.11 060 (СВ) 10 км    3/0 средняя 
[Ac trans]
+26.2 +17.2 58 +39  1012.3  0.1  757  274  +22.7         
09 14.07.11 070 (В) 10 км    1/0 средняя 
[Ac trans]
+29.4 +16.7 46 +41  1012.4  0.1  757  272           
12 14.07.11 110 (В) 10 км    9/6 1000 м средняя 
[Cu med, cong|Ac cast]
+31.4 +17.1 42 +44  1011.8  -0.6  756  270           
15 14.07.11 060 (СВ) 10 км    3/0 средняя 
[Ac trans]
+31.7 +17.2 42 +44  1011.3  -0.5  756  269    +32.2       
18 14.07.11 040 (СВ) 10 км    1/0 средняя 
[Ac trans]
+27.6 +17.7 55 +41  1011.7  0.4  756  273    +32.2       
21 14.07.11 050 (СВ) 10 км    ясно 
+24.3 +14.4 54 +32  1011.8  756  277           
00 15.07.11 080 (В) 10 км    3/0 средняя 
[Ac trans]
+21.9 +14.1 61 +29  1011.5  -0.3  756  279           
03 15.07.11 060 (СВ) 10 км    4/1 1500 м средняя 
[Sc|Ac trans]
+22 +15.3 66 +31  1011.7  0.2  756  279           
06 15.07.11 100 (В) 10 км    8/0 верхняя 
[Ci fib]
+26.4 +18.7 63 +42  1011.8  0.1  756  274  +21         
09 15.07.11 080 (В) 10 км    8/1 1000 м верхняя 
[Cu hum|Ci fib]
+30.7 +19.5 51 +48  1011.5  -0.2  756  269           
12 15.07.11 070 (В) 10 км    10/3 1000 м верхняя 
[Cu hum|Ci fib]
+32.9 +17.4 40 +46  1010.5  -0.9  755  268           
15 15.07.11 070 (В) 10 км    10/3 1000 м верхняя 
[Sc diur, vesp|Ci fib]
+32.1 +14.4 34 +40  1009.3  -1.3  754  269    +33.4       
18 15.07.11 тихо ()   10 км    10/4 1000 м верхняя 
[Sc|Ci fib]
+27.9 +16.4 50 +39  1009.2  0.1  754  272    +33.4       
21 15.07.11 030 (СВ) 10 км    8/3 1000 м средняя, верхняя 
[Sc|Ac trans|Ci fib]
+26.6 +14.4 47 +34  1008.6  -0.6  754  274           
00 16.07.11 210 (ЮЗ) 10 км    10/5 1000 м средняя, верхняя 
[Sc|Ac trans|Ci fib]
+24.4 +13.4 50 +30  1008.4  -0.3  754  276           
03 16.07.11 110 (В) 10 км    10/3 1000 м средняя, верхняя 
[Sc|Ac trans|Ci fib]
+23.3 +15.1 60 +32  1008.4  754  277           
06 16.07.11 070 (В) 10 км    10/3 1000 м средняя, верхняя 
[Sc|Ac trans|Ci fib]
+26.3 +15.7 52 +36  1008.4  754  274  +23         
09 16.07.11 030 (СВ) 10 км    10/4 1000 м средняя, верхняя 
[Cu med, cong|Ac trans|Ci fib]
+30.5 +18.3 48 +45  1008.1  -0.2  754  269           
12 16.07.11 070 (В) 10 км    9/6 1000 м средняя 
[Cu med, cong|Ac trans]
+31.7 +17.5 43 +45  1007.3  -0.8  753  268           
15 16.07.11 040 (СВ) 10 км    10/8 1000 м средняя 
[Cu med, cong|Ac trans]
+31.3 +15.2 38 +40  1006.1  -1.2  752  269    +33       
18 16.07.11 020 (С) 10 км    8/0 1000 м средняя 
[Cu med, cong|Ac trans]
+27.4 +13 41 +33  1005.4  -0.7  752  273    +33       
21 16.07.11 060 (СВ) 10 км    10/9 1000 м средняя 
[Cu med, cong|Ac trans]
+24.1 +13.7 52 +31  1005.6  0.1  752  276           
00 17.07.11 тихо ()   10 км    10/4 1000 м средняя, верхняя 
[Cu med, cong|Ac trans|Ci fib]
+23.4 +14.4 57 +31  1006.1  0.5  752  276           
03 17.07.11 060 (СВ) 10 км    10/9 1000 м средняя 
[Sc|Ac und]
+22.4 +14.9 63 +31  1006.6  0.5  752  277           
06 17.07.11 020 (С) 10 км    10/0 средняя, верхняя 
[Ac trans|Cc]
+28.8 +17.1 49 +41  1006.5  752  271  +22.4         
09 17.07.11 070 (В) 10 км    9/3 1000 м средняя, верхняя 
[Sc|Ac trans|Cc]
+30.7 +14.1 36 +38  1006.7  0.2  752  270           
12 17.07.11 110 (В) 10 км    8/0 средняя, верхняя 
[Ac trans|Cc]
+31.9 +17.6 43 +45  1006.2  -0.5  752  268           
15 17.07.11 170 (Ю) 10 км    6/0 средняя, верхняя 
[Ac trans|Cc]
+32.1 +17.3 41 +45  1005.5  -0.7  752  267    +32.5       
18 17.07.11 тихо ()   10 км    4/0 средняя, верхняя 
[Ac trans|Ci]
+27.7 +20.2 64 +47  1005.5  0.1  752  270    +32.5       
21 17.07.11 200 (Ю) 10 км    ясно 
+25.6 +19.1 67 +42  1005.1  -0.4  751  272           
00 18.07.11 070 (В) 10 км    3/0 средняя, верхняя 
[Ac trans|Ci fib]
+23.6 +20.2 81 +43  1005.4  0.2  752  274           
03 18.07.11 060 (СВ) 10 км    9/9 1000 м 
[Sc]
+23.2 +21 87 +44  1005.6  0.2  752  274           
06 18.07.11 060 (СВ) 10 км    8/3 1000 м средняя, верхняя 
[Sc|Ac trans|Cc]
+27.4 +16.3 51 +38  1005.5  0.1  752  272  +22.6         
09 18.07.11 070 (В) 10 км    3/0 средняя, верхняя 
[Ac trans|Ci fib]
+32.3 +13.6 32 +39  1005.1  -0.4  751  268           
12 18.07.11 070 (В) 10 км    6/3 1000 м средняя, верхняя 
[Cu hum|Ac trans|Ci fib]
+34.4 +12.9 27 +40  1004.1  -1  751  266           
15 18.07.11 060 (СВ) 10 км    8/3 1000 м средняя, верхняя 
[Sc diur, vesp|Ac trans|Ci fib]
+33.5 +13.6 30 +40  1003.6  -0.5  750  267    +34.6       
18 18.07.11 030 (СВ) 10 км    10/4 1000 м средняя, верхняя 
[Sc|Ac trans|Ci fib]
+29.7 +12.9 36 +35  1003.9  0.2  750  270    +34.6       
21 18.07.11 050 (СВ) 10 км    8/3 1000 м средняя, верхняя 
[Sc|Ac cast|Cc]
+25.9 +13.5 46 +32  1003.5  -0.4  750  273           
00 19.07.11 тихо ()   10 км    9/5 1000 м средняя 
[Sc|Ac trans]
+24.7 +13.4 49 +31  1003.7  -0.1  750  275           
03 19.07.11 тихо ()   10 км  {ливн. осадки}  10/5 1000 м кучево-дожд., средняя, верхняя 
[Cb cap|Ac trans|Ci fib]
+25 +17.7 64 +39  1004.9  1.3  751  273           
06 19.07.11 310 (СЗ) 10 км    10/6 1000 м кучево-дожд., средняя, верхняя 
[Cb cap|Ac trans|Ci fib]
+28.7 +18.9 55 +45  1006.4  1.5  752  270  +23.8         
09 19.07.11 350 (С) 10 км    6/1 1000 м средняя, верхняя 
[Cu med, cong|Ac cast|Ci fib]
+32.9 +15.6 35 +43  1006.1  -0.2  752  267           
12 19.07.11 320 (СЗ) 10 км    9/8 1000 м средняя 
[Cu Sc|Ac trans]
+32.9 +15.6 35 +43  1006.1  -0.2  752  267           
15 19.07.11 280 (З) 10 км    9/5 1000 м средняя 
[Cu med, cong|Ac trans]
+28.9 +20.3 60 +48  1006.5  0.5  752  269    +34.2       
18 19.07.11 280 (З) 10 км    8/0 средняя, верхняя 
[Ac trans|Ci fib]
+25.3 +20.7 76 +45  1006.8  0.3  753  272    +34.2       
21 19.07.11 270 (З) 10 км    8/0 средняя, верхняя 
[Ac trans|Ci fib]
+23.4 +20.2 82 +42  1006.4  -0.4  752  274           
00 20.07.11 260 (З) 10 км    8/0 средняя, верхняя 
[Ac trans|Ci fib]
+22.6 +19 80 +39  1006  -0.5  752  275           
03 20.07.11 250 (З) 10 км    4/0 средняя, верхняя 
[Ac trans|Ci fib]
+21.7 +19.6 88 +39  1006.1  0.1  752  276           
06 20.07.11 250 (З) 10 км    6/0 средняя, верхняя 
[Ac cast|Cc]
+26.3 +18.8 63 +42  1005.9  0.1  752  272  +21.5         
09 20.07.11 250 (З) 10 км    8/0 верхняя 
[Ci]
+32.9 +15.5 35 +42  1005.1  -0.7  751  267           
12 20.07.11 280 (З) 10 км    10/3 1000 м средняя, верхняя 
[Cu hum|Ac trans|Cc]
+35.5 +13.5 27 +42  1004.4  -0.7  751  265           
15 20.07.11 220 (ЮЗ) 10 км    8/3 1000 м средняя, верхняя 
[Sc|Ac trans|Cc]
+31.1 +20.8 54 +52  1003.7  -0.7  750  266    +35.6       
18 20.07.11 190 (Ю) 10 км    9/8 1000 м средняя 
[Sc|Ac trans]
+28.3 +22.1 69 +52  1003.8  750  268    +35.6       
21 20.07.11 090 (В) 10 км    10/10 1000 м 
[Sc]
+26.5 +19.4 65 +44  1003.7  0.1  750  271           
00 21.07.11 040 (СВ) 10 км    9/8 1000 м средняя 
[Sc|Ac trans]
+24.9 +19.6 72 +43  1003.3  -0.5  750  272           
03 21.07.11 110 (В) 10 км    9/9 1000 м кучево-дожд. 
[Cb cap]
+24.3 +20.1 77 +43  1003.3  -0.5  750  273           
06 21.07.11 240 (ЮЗ) 10 км    9/8 1500 м средняя 
[Sc|Ac cast]
+26.9 +21.1 71 +48  1002.9  -0.5  750  270  +23.6         
09 21.07.11 130 (ЮВ) 10 км    3/0 средняя 
[Ac cast]
+33 +16.4 37 +44  1002.3  -0.5  749  266           
12 21.07.11 080 (В) 10 км    3/3 1000 м 
[Cu med, cong]
+34 +17.8 38 +48  1001.6  -0.7  749  264           
15 21.07.11 070 (В) 10 км    3/0 средняя 
[Ac trans]
+33.5 +16.1 35 +44  1001.1  -0.5  748  265    +34.2       
18 21.07.11 070 (В) 10 км    3/0 верхняя 
[Ci fib]
+29.7 +19.3 54 +47  1001.5  0.3  749  268    +34.2       
21 21.07.11 тихо ()   10 км    4/0 верхняя 
[Ci]
+27 +20.7 68 +47  1001.3  -0.2  748  269           
00 22.07.11 250 (З) 10 км    ясно 
+24.6 +21 80 +46  1001.2  0.1  748  271           
03 22.07.11 260 (З) 10 км    3/0 средняя, верхняя 
[Ac trans|Ci]
+23.8 +21.1 85 +45  1002.3  1.1  749  272           
06 22.07.11 250 (З) 10 км    10/0 средняя, верхняя 
[Ac trans|Ci fib]
+29.5 +21.9 64 +53  1003.1  0.8  750  267  +23.6         
09 22.07.11 320 (СЗ) 10 км    6/1 1000 м средняя, верхняя 
[Cu hum|Ac trans|Ci fib]
+34.2 +19.5 42 +52  1003.2  0.2  750  264           
12 22.07.11 220 (ЮЗ) 10 км    5/4 1000 м кучево-дожд., верхняя 
[Cb cap|Ci fib]
+35.4 +16.2 32 +46  1003.1  0.1  750  264           
15 22.07.11 330 (СЗ) 10 км    9/6 1000 м кучево-дожд., средняя 
[Cb cap|Ac trans]
+29.4 +20.3 58 +49  1005.3  2.2  752  268    +35.7       
18 22.07.11 160 (Ю) 10 км    8/4 1000 м кучево-дожд., средняя 
[Cb cap|Ac cast]
+25.2 +18.1 65 +40  1006  0.5  752  273    +35.7       
21 22.07.11 220 (ЮЗ) 10 км  {ливн. осадки}  10/3 600 м кучево-дожд., средняя, верхняя 
[Cb cap|Ac trans|Ci fib]
+24.4 +19.4 74 +42  1007.3  1.3  753  274           
00 23.07.11 300 (СЗ) 10 км  {ливн. осадки}  8/3 600 м кучево-дожд., верхняя 
[Cb cap|Ci fib]
+23.5 +19.8 80 +42  1006.6  -0.7  752  274           
03 23.07.11 110 (В) 10 км    10/5 1000 м кучево-дожд., средняя, верхняя 
[Cb cap|Ac trans|Ci fib]
+23.3 +19.8 81 +41  1008.8  2.2  754  275           
06 23.07.11 240 (ЮЗ) 10 км    8/3 1000 м средняя, верхняя 
[Sc|Ac cast|Ci fib]
+26.1 +19.1 65 +43  1008.9  0.2  754  273  +22.6         
09 23.07.11 330 (СЗ) 10 км    8/8 1000 м 
[Cu med, cong]
+29.6 +19.3 54 +46  1009  0.1  754  270           
12 23.07.11 360 (С) 10 км  {гроза}  10/8 600 м кучево-дожд., средняя 
[Cb cap|Ac trans]
+25.7 +18.9 66 +42  1009.4  0.4  755  273           
15 23.07.11 100 (В) 10 км    10/6 1000 м кучево-дожд., средняя, верхняя 
[Cb cap|Ac trans|Ci fib]
+24.8 +18.9 70 +41  1010.6  1.1  755  275    +29.8       
18 23.07.11 тихо ()   10 км  слаб. ливневой дождь  10/4 1000 м кучево-дожд., средняя 
[Cb cap|Ac und]
+20.8 +19.4 92 +38  1009.6  -1  755  278    +29.8       
21 23.07.11 тихо ()   10 км    8/0 средняя, верхняя 
[Ac trans|Ci fib]
+20.3 +19.2 93 +37  1010.3  0.6  755  279           
00 24.07.11 050 (СВ) 10 км    10/10 1000 м кучево-дожд. 
[Cb cap]
+20.5 +19 91 +37  1009.8  -0.5  755  278           
03 24.07.11 тихо ()   10 км    9/8 1000 м средняя 
[Sc|Ac trans]
+20.2 +19.3 95 +37  1010.1  0.3  755  279           
06 24.07.11 070 (В) 10 км    9/8 600 м кучево-дожд., верхняя 
[Cb cap|Ci]
+22.8 +19.4 81 +40  1010.2  0.1  755  276  +20.1       
09 24.07.11 060 (СВ) 10 км    8/6 1000 м верхняя 
[Cu med, cong|Ci ing]
+28.3 +19.2 58 +45  1009.6  -0.6  755  271           
12 24.07.11 050 (СВ) 10 км    8/8 1000 м 
[Cu hum]
+30.2 +18.3 49 +45  1008.4  -1.2  754  269           
15 24.07.11 090 (В) 10 км    10/4 1000 м средняя, верхняя 
[Cu hum|Ac trans|Ci ing]
+29.8 +18 49 +44  1007.7  -0.7  753  270    +30.6       
18 24.07.11 070 (В) 10 км    3/0 средняя 
[Ac trans]
+25.3 +20.6 75 +45  1008.1  754  273    +30.6       
21 24.07.11 040 (СВ) 10 км    ясно 
+22.8 +20.8 88 +43  1007.6  -0.5  753  275           
00 25.07.11 060 (СВ) 10 км    ясно 
+21.4 +19.9 91 +40  1007.1  -0.5  753  276           
03 25.07.11 070 (В) 10 км    3/3 1000 м 
[Sc]
+20.6 +19.1 91 +37  1007.3  0.2  753  278           
06 25.07.11 100 (В) 10 км    1/1 1000 м 
[Sc]
+26.4 +20.6 70 +46  1007.8  0.6  753  272  +20.3         
09 25.07.11 040 (СВ) 10 км    ясно 
+32 +19.8 49 +50  1007.4  -0.4  753  267           
12 25.07.11 060 (СВ) 10 км    1/1 1500 м 
[Sc diur, vesp]
+33.8 +19.4 43 +51  1007.4  0.1  753  266           
15 25.07.11 090 (В) 10 км    8/5 1500 м верхняя 
[Sc diur, vesp|Ci fib]
+32.4 +16.6 39 +44  1007.6  -0.1  753  268    +33.9       
18 25.07.11 тихо ()   10 км    ясно 
+27.4 +19.3 61 +44  1007.9  0.2  753  271    +33.9       
21 25.07.11 080 (В) 10 км    ясно 
+25.4 +20.4 74 +45  1008.7  0.8  754  273           
00 26.07.11 тихо ()   10 км    ясно 
+24.7 +21.5 82 +47  1009.7  755  273           
03 26.07.11 тихо ()   10 км    9/0 средняя, верхняя 
[Ac trans|Ci]
+23.8 +20.9 84 +44  1009.9  0.2  755  275           
06 26.07.11 080 (В) 10 км    10/0 средняя, верхняя 
[Ac trans|Ci]
+30.4 +20.9 57 +51  1011  1.2  756  269  +23.3         
09 26.07.11 160 (Ю) 10 км    3/0 средняя 
[Ac trans]
+34.5 +20 43 +53  1011.4  1.2  756  266           
12 26.07.11 070 (В) 10 км    ясно 
+37.5 +17.7 31 +51  1011.1  -0.3  756  264           
15 26.07.11 100 (В) 10 км    ясно 
+37 +17 31 +49  1011.1  756  265    +38.4       
18 26.07.11 тихо ()   10 км    ясно 
+31 +22.1 59 +54  1012.1  0.9  757  268    +38.4       
21 26.07.11 080 (В) 10 км    ясно 
+29 +21.7 65 +51  1012.1  0.9  757  270           
00 27.07.11 260 (З) 10 км    ясно 
+26.9 +22.1 75 +50  1012.3  0.2  757  272           
03 27.07.11 тихо ()   10 км    ясно 
+26 +22.4 81 +50  1013.1  0.8  757  273           
06 27.07.11 тихо ()   10 км    ясно 
+32.2 +22.8 58 +57  1013.5  0.4  758  267  +25.7         
09 27.07.11 110 (В) 10 км    ясно 
+36.7 +20.6 39 +56  1013.3  -0.2  757  264           
12 27.07.11 120 (ЮВ) 10 км    3/3 1000 м 
[Cu hum]
+38.5 +16.7 28 +50  1012.4  -0.2  757  264           
15 27.07.11 020 (С) 10 км    3/3 1000 м 
[Cu hum]
+37.9 +18.1 31 +52  1011.9  -0.5  756  264    +39.5       
18 27.07.11 340 (С) 10 км    ясно 
+32.6 +21.1 51 +53  1012.6  0.6  757  267    +39.5       
21 27.07.11 270 (З) 10 км    ясно 
+29.5 +21 60 +50  1012.4  -0.3  757  270           
00 28.07.11 280 (З) 10 км    ясно 
+27.2 +22.3 75 +51  1012.6  0.2  757  272           
03 28.07.11 250 (З) 10 км    ясно 
+26.1 +20.8 73 +46  1013.5  0.9  758  273           
06 28.07.11 280 (З) 10 км    ясно 
+31.4 +21 54 +52  1013.8  0.3  758  269  +25.6         
09 28.07.11 260 (З) 10 км    ясно 
+35 +21.8 46 +58  1012.9  -0.8  757  265           
12 28.07.11 330 (СЗ) 10 км    3/3 1000 м 
[Cu hum]
+36.8 +20 38 +55  1011.9  -1  756  264           
15 28.07.11 330 (СЗ) 10 км    ясно 
+34.7 +18.6 39 +50  1011.3  -0.6  756  266    +37.4       
18 28.07.11 300 (СЗ) 10 км    ясно 
+29.2 +18.6 53 +44  1012.3  757  271    +37.4       
21 28.07.11 320 (СЗ) 10 км    ясно 
+26.5 +18.4 61 +41  1011.5  -0.8  756  274           
00 29.07.11 тихо ()   10 км    ясно 
+24.9 +19.4 72 +42  1011.1  -0.5  756  274           
03 29.07.11 280 (З) 10 км    3/0 средняя, верхняя 
[Ac As|Ci fib]
+24.2 +19.4 75 +41  1010.8  -0.3  755  275           
06 29.07.11 020 (С) 10 км    3/0 верхняя 
[Ci fib]
+30.1 +20.7 57 +50  1010  -0.7  755  269  +23.3         
09 29.07.11 040 (СВ) 10 км    ясно 
+35 +17.4 35 +48  1008.2  -1.7  754  265           
12 29.07.11 080 (В) 10 км    3/0 верхняя 
[Ci fib]
+36.9 +17.8 33 +51  1006.5  -1.6  752  263           
15 29.07.11 080 (В) 10 км    ясно 
+36.2 +17.5 33 +49  1005.2  -1.3  751  264    +37.5       
18 29.07.11 040 (СВ) 10 км    ясно 
+31.5 +17.3 43 +44  1004.9  -0.3  751  268    +37.5       
21 29.07.11 040 (СВ) 10 км    3/3 1000 м 
[Sc]
+28.1 +16.2 48 +39  1004  -1  750  271           
00 30.07.11 040 (СВ) 10 км    6/3 1000 м верхняя 
[Sc|Ci fib]
+26.4 +16.4 54 +38  1003.4  -0.6  750  272           
03 30.07.11 040 (СВ) 10 км    10/4 1000 м кучево-дожд., средняя, верхняя 
[Cb cap|Ac cast|Ci fib]
+26.4 +15.8 52 +36  1002.9  -0.5  750  272           
06 30.07.11 100 (В) 10 км    3/0 средняя, верхняя 
[Ac trans|Ci fib]
+30.1 +17 45 +42  1002  -0.8  749  268  +25.7         
09 30.07.11 230 (ЮЗ) 10 км    ясно 
+35 +21.9 47 +58  1001.2  -0.7  748  262           
12 30.07.11 200 (Ю) 10 км    ясно 
+35.3 +20 41 +54  1001.3  -0.7  749  262           
15 30.07.11 210 (ЮЗ) 10 км    ясно 
+32 +21.8 55 +55  1001.8  0.6  749  265    +35.7       
18 30.07.11 210 (ЮЗ) 10 км    ясно 
+28.6 +21.6 66 +51  1002.9  750  268    +35.7       
21 30.07.11 220 (ЮЗ) 10 км    ясно 
+26.7 +22.1 76 +50  1002.9  750  269           
00 31.07.11 240 (ЮЗ) 10 км    ясно 
+26.8 +21.9 75 +50  1003.3  0.4  750  270           
03 31.07.11 240 (ЮЗ) 10 км    3/0 
[Cu med, cong]
+27.6 +21.4 69 +50  1003.5  0.2  750  269           
06 31.07.11 250 (З) 10 км    9/8 1000 м средняя 
[Sc|Ac trans]
+29.6 +22.1 64 +53  1004.5  751  267  +26.6         
09 31.07.11 240 (ЮЗ) 10 км    3/3 1000 м 
[Cu med, cong]
+32.8 +19.9 47 +51  1005.2  0.7  751  266           
12 31.07.11 270 (З) 10 км    3/3 1000 м 
[Cu hum]
+34.5 +16.7 35 +46  1005.3  0.1  752  265           
15 31.07.11 290 (З) 10 км    4/3 1000 м средняя 
[Cu med, cong|Ac trans]
+32.8 +17.9 41 +47  1005.5  0.2  752  266    +34.5       
18 31.07.11 220 (ЮЗ) 10 км    ясно 
+28.1 +18.6 56 +44  1007.3  1.7  753  271    +34.5       
21 31.07.11 240 (ЮЗ) 10 км    ясно 
+24.9 +19.2 71 +42  1007.8  0.5  753  274           
00 01.08.11 240 (ЮЗ) 10 км    ясно 
+23.1 +18.7 76 +39  1008.2  0.3  754  276           
03 01.08.11 220 (ЮЗ) 10 км    4/4 1000 м 
[Sc]
+23 +18.8 77 +39  1008.6  0.4  754  276           
Время (UTC), дата Ветер
(°,м/с) 
Видим.   Явления Облачность Т
(°С)
Тd
(°С)
f(%) Тe
(°С)
Pmin
(гПа)
dP
(гПа)
Po
(мм)
O2
(г/м3)
Тmin Tmax R s Состояние
почвы